Visalia, CA

5:57 PM PDT on October 22, 2019 (GMT -0700)
Visalia Municipal

Weather History for KVIS - August, 2019

Change the Weather History Date:

Saturday, August 10, 2019

  Actual Average Record
Temperature  
Mean Temperature 76 °F -  
Max Temperature 91 °F 96 °F 108 °F (1929)
Min Temperature 61 °F 66 °F 53 °F (1951)
Cooling Degree Days 10    
Growing Degree Days 26 (Base 50)    
Moisture  
Dew Point 58 °F    
Average Humidity 58    
Maximum Humidity 93    
Minimum Humidity 28    
Precipitation  
Precipitation 0.00 in - - ()
Sea Level Pressure  
Sea Level Pressure 29.93 in    
Wind  
Wind Speed 6 mph (WNW)    
Max Wind Speed 13 mph    
Max Gust Speed 16 mph    
Visibility 10 miles    
Events      
Averages and records for this station are not official NWS values.
T = Trace of Precipitation, MM = Missing Value Source: NWS Daily Summary

Daily Weather History Graph

Daily Weather History Graph

Search for Another Location

Airport or City:

Astronomy

Aug. 10, 2019 Rise Set
Actual Time 6:11 AM PDT 7:53 PM PDT
Civil Twilight 5:43 AM PDT 8:21 PM PDT
Nautical Twilight 5:10 AM PDT 8:54 PM PDT
Astronomical Twilight 4:34 AM PDT 9:30 PM PDT
Moon 4:37 PM PDT (8/10) 1:54 AM PDT (8/10)
Length of Visible Light 14h 37m
Length of Day
13h 42m
Waxing Gibbous, 80% of the Moon is Illuminated
Aug 10
Waxing Gibbous
Aug 15
Full
Aug 23
Last Quarter
Aug 30
New
Sep 5
First Quarter

Hourly Weather History & Observations

Time (PDT) Temp. Heat Index Dew Point Humidity Pressure Visibility Wind Dir Wind Speed Gust Speed Precip Events Conditions
12:56 AM 69.1 °F - 57.0 °F 65% 29.90 in 10.0 mi WNW 8.1 mph - N/A   Clear
1:56 AM 66.9 °F - 57.9 °F 73% 29.90 in 10.0 mi West 5.8 mph - N/A   Clear
2:56 AM 64.9 °F - 57.9 °F 78% 29.90 in 10.0 mi WNW 5.8 mph - N/A   Clear
3:56 AM 64.0 °F - 57.9 °F 80% 29.91 in 10.0 mi NW 6.9 mph - N/A   Clear
4:56 AM 64.9 °F - 57.0 °F 75% 29.92 in 10.0 mi Calm Calm - N/A   Clear
5:56 AM 61.0 °F - 57.0 °F 87% 29.93 in 10.0 mi Calm Calm - N/A   Clear
6:56 AM 61.0 °F - 59.0 °F 93% 29.95 in 10.0 mi SW 3.5 mph - N/A   Clear
7:56 AM 66.0 °F - 60.1 °F 81% 29.97 in 10.0 mi West 4.6 mph - N/A   Clear
8:56 AM 70.0 °F - 59.0 °F 68% 29.98 in 10.0 mi West 3.5 mph - N/A   Clear
9:56 AM 73.0 °F - 59.0 °F 61% 29.98 in 10.0 mi Calm Calm - N/A   Clear
10:56 AM 78.1 °F - 59.0 °F 52% 29.98 in 10.0 mi NNW 3.5 mph - N/A   Clear
11:56 AM 81.0 °F 81.7 °F 61.0 °F 50% 29.96 in 10.0 mi West 8.1 mph - N/A   Clear
12:56 PM 84.0 °F 84.0 °F 60.1 °F 44% 29.95 in 10.0 mi West 9.2 mph - N/A   Clear
1:56 PM 86.0 °F 85.0 °F 57.9 °F 38% 29.94 in 10.0 mi Variable 5.8 mph - N/A   Clear
2:56 PM 88.0 °F 86.9 °F 57.9 °F 36% 29.92 in 10.0 mi NW 8.1 mph 16.1 mph N/A   Clear
3:56 PM 88.0 °F 87.1 °F 59.0 °F 37% 29.90 in 10.0 mi WNW 11.5 mph - N/A   Clear
4:56 PM 90.0 °F 87.5 °F 53.1 °F 28% 29.88 in 10.0 mi NNW 9.2 mph - N/A   Clear
5:56 PM 89.1 °F 87.1 °F 55.0 °F 31% 29.88 in 10.0 mi WNW 11.5 mph - N/A   Clear
6:56 PM 86.0 °F 84.7 °F 55.9 °F 36% 29.88 in 10.0 mi WNW 12.7 mph - N/A   Clear
7:56 PM 82.0 °F 82.1 °F 59.0 °F 45% 29.89 in 10.0 mi WNW 9.2 mph - N/A   Clear
8:56 PM 78.1 °F - 59.0 °F 52% 29.91 in 10.0 mi WNW 11.5 mph - N/A   Clear
9:56 PM 75.0 °F - 59.0 °F 57% 29.94 in 10.0 mi WNW 8.1 mph - N/A   Clear
10:56 PM 73.9 °F - 61.0 °F 64% 29.94 in 10.0 mi NW 9.2 mph - N/A   Clear
11:56 PM 73.0 °F - 61.0 °F 66% 29.95 in 10.0 mi NW 10.4 mph - N/A   Clear